Swisher, IA

3:52 AM CST on February 11, 2016 (GMT -0600)
The Eastern Iowa Airport

Weather History for KCID - May, 2013

Change the Weather History Date:

Monday, May 6, 2013

  Actual Average Record
Temperature  
Mean Temperature 63 °F 57 °F  
Max Temperature 74 °F 68 °F 100 °F (1896)
Min Temperature 51 °F 45 °F 30 °F (1989)
Degree Days  
Heating Degree Days 2 9  
Month to date heating degree days 74 57  
Since 1 July heating degree days 6858 6702  
Cooling Degree Days 0 1  
Month to date cooling degree days 0 1  
Year to date cooling degree days 11 8  
Growing Degree Days 12 (Base 50)    
Moisture  
Dew Point 50 °F    
Average Humidity 66    
Maximum Humidity 93    
Minimum Humidity 38    
Precipitation  
Precipitation 0.00 in 0.13 in 1.81 in (1960)
Month to date precipitation 2.97 0.79  
Year to date precipitation 15.81 8.08  
Sea Level Pressure  
Sea Level Pressure 30.02 in    
Wind  
Wind Speed 4 mph (NNW)    
Max Wind Speed 13 mph    
Max Gust Speed 20 mph    
Visibility 10 miles    
Events      
T = Trace of Precipitation, MM = Missing Value Source: NWS Daily Summary

Daily Weather History Graph

Daily Weather History Graph

Search for Another Location

Airport or City:

Trip Planner

Search our weather history database for the weather conditions in past years. The results will help you decide how hot, cold, wet, or windy it might be!

Date:

Astronomy

May. 06, 2013 Rise Set
Actual Time 5:56 AM CDT 8:11 PM CDT
Civil Twilight 5:25 AM CDT 8:42 PM CDT
Nautical Twilight 4:47 AM CDT 9:20 PM CDT
Astronomical Twilight 4:05 AM CDT 10:02 PM CDT
Moon 4:01 AM CDT (5/6) 5:09 PM CDT (5/6)
Length of Visible Light 15h 16m
Length of Day
14h 14m
Waning Crescent, 11% of the Moon is Illuminated
May 6
Waning Crescent
May 9
New
May 17
First Quarter
May 24
Full
May 31
Last Quarter

Hourly Weather History & Observations

Time (CDT) Temp. Dew Point Humidity Pressure Visibility Wind Dir Wind Speed Gust Speed Precip Events Conditions
12:52 AM 55.9 °F 52.0 °F 87% 30.01 in 10.0 mi Calm Calm - N/A   Overcast
1:52 AM 54.0 °F 51.1 °F 90% 30.01 in 10.0 mi Calm Calm - N/A   Partly Cloudy
2:52 AM 55.9 °F 48.0 °F 75% 30.01 in 10.0 mi Calm Calm - N/A   Mostly Cloudy
3:52 AM 54.0 °F 50.0 °F 86% 30.01 in 10.0 mi NNW 4.6 mph - N/A   Partly Cloudy
4:52 AM 53.1 °F 50.0 °F 89% 30.02 in 10.0 mi North 4.6 mph - N/A   Clear
5:52 AM 52.0 °F 48.0 °F 86% 30.04 in 10.0 mi ENE 3.5 mph - N/A   Clear
6:52 AM 55.9 °F 50.0 °F 80% 30.04 in 10.0 mi NE 4.6 mph - N/A   Clear
7:52 AM 57.9 °F 53.1 °F 84% 30.06 in 9.0 mi Calm Calm - N/A   Clear
8:52 AM 63.0 °F 54.0 °F 72% 30.06 in 10.0 mi NNW 5.8 mph - N/A   Clear
9:52 AM 66.9 °F 51.1 °F 57% 30.06 in 10.0 mi Calm Calm - N/A   Clear
10:52 AM 69.1 °F 50.0 °F 51% 30.05 in 10.0 mi NNW 3.5 mph - N/A   Clear
11:52 AM 70.0 °F 51.1 °F 51% 30.05 in 10.0 mi Calm Calm - N/A   Partly Cloudy
12:52 PM 69.1 °F 50.0 °F 51% 30.03 in 10.0 mi WNW 8.1 mph - N/A   Scattered Clouds
1:52 PM 71.1 °F 46.9 °F 42% 30.02 in 10.0 mi NNW 3.5 mph - N/A   Clear
2:52 PM 73.9 °F 46.9 °F 38% 30.00 in 10.0 mi Variable 4.6 mph - N/A   Clear
3:52 PM 73.0 °F 46.0 °F 38% 29.99 in 10.0 mi NNW 3.5 mph - N/A   Scattered Clouds
4:52 PM 73.9 °F 50.0 °F 43% 29.99 in 10.0 mi NW 10.4 mph 19.6 mph N/A   Mostly Cloudy
5:52 PM 73.0 °F 48.0 °F 41% 29.99 in 10.0 mi NW 10.4 mph - N/A   Clear
6:52 PM 70.0 °F 51.1 °F 51% 29.99 in 10.0 mi NW 9.2 mph - N/A   Clear
7:52 PM 66.0 °F 52.0 °F 60% 29.99 in 10.0 mi NNW 4.6 mph - N/A   Clear
8:52 PM 63.0 °F 52.0 °F 67% 29.99 in 10.0 mi NW 4.6 mph - N/A   Partly Cloudy
9:52 PM 59.0 °F 50.0 °F 72% 30.01 in 10.0 mi East 4.6 mph - N/A   Partly Cloudy
10:52 PM 61.0 °F 50.0 °F 67% 30.01 in 10.0 mi Calm Calm - N/A   Clear
11:52 PM 57.0 °F 48.9 °F 74% 30.01 in 10.0 mi Calm Calm - N/A   Clear